www.pogodaiklimat.ru

Погода и климат >> Архив погоды >> Китай >> Nanyue


ПОГОДА в Nanyue

  • Прогноз погоды в Nanyue
  • Монитор погоды в Nanyue
  • Климат города

АРХИВ ПОГОДЫ в Nanyue

Время (UTC), дата Ветер
(напр.,м/с)
 
Видим.   Явления Облачность Т
(С)
Тd
(С)
f
(%)
Тe
(С)
Тes
(С)
Комфортность P
(гПа)
Po
(гПа)
Тmin
(С)
Tmax
(С)
R
(мм)
R24
(мм)
S
(см)
18 23.04 Ю 8 27 км ?/? +12.5 +6.8 68 +10 +10 1012.8 1013.0 +17.2
21 23.04 Ю 8 29 км ?/? +12.6 +7.7 72 +10 +10 1013.4 1013.0
00 24.04 ЮЗ 7 26 км 3/3
[]
+14.2 +8.6 69 +12 +13 1015.1 1015.0
03 24.04 ЮВ 1 22 км 8/8
[]
+19.1 +12.1 64 +21 +26 комфорт 1014.7 1015.0
06 24.04 З 1 23 км 9/9 200 м
[]
+19.6 +11.6 60 +22 +24 комфорт 1013.3 1036.7 +12.3
09 24.04 Ю 4 24 км 9/9 300 м
[]
+17.4 +10.5 64 +17 +17 1012.2 1012.0
12 24.04 Ю 6 28 км в посл. час дождь 10/10 300 м
[]
+16.3 +9.7 65 +15 +15 1012.7 873.1 0.0
18 24.04 Ю 7 <100 м туман ?/? +14.4 +14.2 99 +12 +12 1010.1 1010.0 +20.7
21 24.04 Ю 9 <100 м туман ?/? +14.5 +14.5 100 +12 +12 1009.4 1009.0
00 25.04 Ю 9 <100 м слабый дождь ?/? +14.6 +14.6 100 +12 +12 1010.5 1011.0 2
03 25.04 З 9
{17}
100 м слабый дождь {туман} ?/? +15.4 +15.4 100 +13 +13 1011.1 1011.0
06 25.04 З 8
{17}
<100 м слабый дождь {туман} ?/? +15.5 +15.5 100 +13 +13 1010.4 1032.9 +14.3 4
09 25.04 З 8
{17}
<100 м слабый дождь {туман} ?/? +15.8 +15.8 100 +14 +14 1009.4 1009.0
12 25.04 С 5
{17}
<100 м слабый дождь {туман} ?/? +13.7 +13.7 100 +12 +12 1011.7 871.8 20
18 25.04 С 7 <100 м туман ?/? +10.4 +10.4 100 +7 +7 1013.5 1014.0 +15.8 11
21 25.04 С 4 <100 м туман ?/? +9.7 +9.7 100 +7 +7 1013.6 1014.0
00 26.04 С 3 <100 м слабый дождь ?/? +10.0 +10.0 100 +8 +8 1016.6 1017.0 7
03 26.04 С 4 <100 м слабый дождь {туман} ?/? +10.1 +10.1 100 +7 +7 1017.8 1018.0
06 26.04 С 2 <100 м слабый дождь {туман} ?/? +9.6 +9.6 100 +8 +8 1017.7 1017.3 +9.6 13
09 26.04 С 5 <100 м слабый дождь {туман} ?/? +9.0 +9.0 100 +5 +5 1017.1 1017.0
12 26.04 С 4 <100 м слабый дождь {туман} ?/? +8.8 +8.8 100 +5 +5 1019.1 1019.0 20
18 26.04 С 4 <100 м туман ?/? +8.8 +8.8 100 +5 +5 1019.6 1020.0 +10.4 14
21 26.04 С 5 <100 м туман ?/? +8.6 +8.6 100 +5 +5 1019.8 1020.0
00 27.04 С 5 <100 м слабый дождь ?/? +8.5 +8.5 100 +5 +5 1021.6 1022.0 2
03 27.04 С 2 <100 м слабый дождь {туман} ?/? +9.0 +9.0 100 +7 +7 1023.2 1023.0
06 27.04 С 3 <100 м туман {дождь} ?/? +9.2 +9.2 100 +7 +7 1021.3 1045.4 +8.3 0.1
09 27.04 С 3 <100 м туман ?/? +9.5 +9.5 100 +7 +7 1020.3 1020.0
12 27.04 С 4 4700 м в посл. час туман ?/? +7.0 +7.0 100 +3 +3 1021.9 877.6
18 27.04 С 2 4200 м дымка ?/? +8.2 +7.6 96 +6 +6 1021.2 1021.0 +10.3
21 27.04 СВ 4 3700 м дымка ?/? +8.0 +7.6 97 +5 +5 1020.2 1020.0
00 28.04 В 2 8000 м 1/1 300 м
[]
+12.2 +9.0 81 +11 +15 1021.4 878.0
03 28.04 В 1 12 км 9/9 200 м
[]
+12.9 +7.8 71 +13 +15 1021.7 830.1
06 28.04 В 1 13 км 9/9
[]
+14.2 +9.2 72 +15 +17 1018.9 876.6 +6.7
09 28.04 З 2 29 км 3/3
[]
+15.0 +1.9 41 +15 +18 1017.3 1017.0
12 28.04 С 3 30 км ясно +12.0 -9.6 21 +11 +11 1017.1 875.5
18 28.04 СЗ 6 30 км ?/? +10.7 -4.9 33 +8 +8 1016.1 1016.0 +15.4
21 28.04 СЗ 6 30 км ?/? +11.3 -4.0 34 +9 +9 1015.3 1015.0
00 29.04 С 2 30 км ясно +15.4 -3.0 28 +16 +20 1016.3 1016.0
03 29.04 ЮВ 1 24 км ясно +17.3 +6.8 50 +18 +40 опасность
простуды
1016.7 1017.0
06 29.04 Ю 2 15 км 3/3 300 м
[]
+15.9 +9.1 64 +16 +29 опасность
простуды
1015.9 1016.0 +10.1
09 29.04 Ю 3 18 км ясно +17.4 +8.5 56 +17 +21 1013.6 1014.0
12 29.04 Ю 5 27 км ясно +14.5 +2.7 45 +13 +13 1013.5 1014.0
18 29.04 Ю 3 28 км ?/? +15.2 +7.0 58 +15 +15 1012.2 1012.0 +19.3
21 29.04 ЮЗ 7 25 км ?/? +14.9 +8.2 64 +13 +13 1011.1 1011.0
00 30.04 ЮЗ 5 15 км ясно +16.7 +11.0 69 +16 +18 1012.6 1013.0
03 30.04 З 3 14 км 3/3 300 м
[]
+19.5 +12.8 65 +21 +32 комфорт 1012.2 1012.0
06 30.04 Ю 2 11 км 6/6 300 м
[]
+20.6 +13.8 65 +24 +31 комфорт 1010.6 872.5 +14.2
09 30.04 ЮЗ 1 10 км 9/9
[]
+19.4 +14.9 75 +22 +23 комфорт 1010.0 1010.0

 

Местоположение метеостанции Nanyue (Китай): широта 27.30 долгота 112.70 высота над уровнем моря 1268 м.

В архиве по умолчанию представлена погода в Nanyue за последнюю неделю. Архивные данные за месяц целиком и за предыдущие месяцы, начиная с января 2011 года, Вы можете получить, выбрав интересующий диапазон дат из раскрывающегося списка и нажав кнопку "Ввод!".

Внимание! Время в таблицах - всемирное. Для получения местного времени необходимо прибавить поправку, которая в Nanyue равна 8 ч.

Смотрите также архив погоды в соседних городах и на ближайших метеорологических станциях:

Погода в Changsha (Китай) (105 км)
Погода в Shaoyang (Китай) (123 км)
Погода в Lingling (Китай) (161 км)
Погода в Chenzhou (Китай) (170 км)
Погода в Yichun (Китай) (175 км)
Погода в Wugang (Китай) (215 км)
Погода в Changde (Китай) (219 км)
Погода в Jian (Китай) (224 км)
Погода в Yueyang (Китай) (234 км)
Погода в Yuanling (Китай) (261 км)

Пояснения к столбцам:

Ветер - указаны скорость ветра в м/с - средняя за 10 мин, порывы в срок и между сроками (в фигурных скобках) и направление, откуда дует ветер: С - северный, СВ - северо-восточный, В - восточный, ЮВ - юго-восточный, Ю - южный, ЮЗ - юго-западный, З - западный, СЗ - северо-западный.
Видимость - горизонтальная дальность видимости в метрах или километрах. При видимости от 1 до 10 км при отсутствии осадков обычно наблюдается дымка, при ухудшении видимости до 1 км и менее - туман. В сухую погоду видимость может ухудшаться дымом, пылью или мглою.
Явления - указаны атмосферные явления, наблюдавшиеся в срок или в последний час перед сроком; фигурными скобками обозначены явления, наблюдавшиеся между сроками (за 1-3 часа до срока); квадратными скобками обозначены град или гололедные отложения с указанием их диаметра в мм.
Облачность - указаны через наклонную черту общая и нижняя облачность в баллах и высота нижней границы облаков в метрах; квадратными скобками обозначены формы облаков: Ci - перистые, Cs - перисто-слоистые, Cc - перисто-кучевые, Ac - высококучевые, As - высокослоистые, Sc - слоисто-кучевые, Ns - слоисто-дождевые, Cu - кучевые, Cb - кучево-дождевые. Подробнее классификацию облаков см. в Атласе облаков (PDF).
T - Температура воздуха - температура, измеренная на высоте 2 м над землей.
Td - Температура точки росы - температура, при понижении до которой содержащийся в воздухе водяной пар достигнет насыщения.
f - Относительная влажность воздуха - влажноcть воздуха, измеренная на высоте 2 м над землей.
Te - Эффективная температура - температура, которую ощущает одетый по сезону человек в тени. Характеристика душности погоды. При расчете учитывается влияние влажности воздуха и скорости ветра на теплоощущения человека.
Tes - Эффективная температура на солнце - температура, которую ощущает человек, с поправкой на солнечный нагрев. Характеристика знойности погоды. Зависит от высоты солнца над горизонтом, облачности и скорости ветра. Ночью, в пасмурную погоду, а также при ветре 12 м/с и более поправка равна нулю.
P - Атмосферное давление - приведенное к уровню моря атмосферное давление.
Po - Атмосферное давление - измеренное на уровне метеостанции атмосферное давление.
Tmin - Минимальная температура - минимум температуры воздуха на высоте 2 м над землей.
Tmax - Максимальная температура - максимум температуры воздуха на высоте 2 м над землей.
R - Количество осадков - Количество выпавших осадков за период времени, мм. При наведении курсора мыши на число - период времени, за который выпало указанное количество осадков.
R24 - Количество осадков - Количество выпавших осадков за 24 часа, мм.
S - Снежный покров - Высота снежного покрова, см. При наведении курсора мыши на число - состояние снежного покрова и степень покрытия местности в баллах.